Printer-friendly version

IAU Minor Planet Center

Minor Planet Center

MPEC 2004-X44 : 2004 XP14

The following Minor Planet Electronic Circular may be linked-to from your own Web pages, but must not otherwise be redistributed electronically.


Read MPEC 2004-X43 Read MPEC 2004-X45


M.P.E.C. 2004-X44                                Issued 2004 Dec. 11, 13:10 UT

     The Minor Planet Electronic Circulars contain information on unusual
         minor planets and routine data on comets.  They are published
   on behalf of Commission 20 of the International Astronomical Union by the
          Minor Planet Center, Smithsonian Astrophysical Observatory,
                          Cambridge, MA 02138, U.S.A.

                  Supported in part by the Brinson Foundation
             Prepared using the Tamkin Foundation Computer Network

                              MPC@CFA.HARVARD.EDU
          URL http://cfa-www.harvard.edu/iau/mpc.html  ISSN 1523-6714

                                   2004 XP14

Observations:
     K04X14P* C2004 12 10.45890 11 04 06.44 +34 59 50.3          18.8   EX044704
     K04X14P  C2004 12 10.47536 11 04 06.52 +34 58 32.9          18.9   EX044704
     K04X14P  C2004 12 10.48760 11 04 06.61 +34 57 35.1          19.2   EX044704
     K04X14P  C2004 12 10.50003 11 04 06.67 +34 56 36.4          19.4   EX044704
     K04X14P  C2004 12 10.51368 11 04 06.72 +34 55 31.5          19.5   EX044704
     K04X14P  C2004 12 11.12589 11 04 17.72 +34 05 56.3                 EX044246
     K04X14P  C2004 12 11.12654 11 04 17.73 +34 05 53.3                 EX044246
     K04X14P  C2004 12 11.12734 11 04 17.74 +34 05 49.9                 EX044246
     K04X14P  C2004 12 11.12806 11 04 17.74 +34 05 46.7                 EX044246
     K04X14P  C2004 12 11.12861 11 04 17.71 +34 05 43.5                 EX044246
     K04X14P  C2004 12 11.12935 11 04 17.77 +34 05 39.6                 EX044246
     K04X14P  C2004 12 11.17668 11 04 18.51 +34 01 44.0          19.8 R EX044J95
     K04X14P  C2004 12 11.18029 11 04 18.45 +34 01 25.4          18.6 R EX044J95
     K04X14P  C2004 12 11.18386 11 04 18.50 +34 01 07.7          18.9 R EX044J95
     K04X14P  C2004 12 11.44575 11 04 23.34 +33 39 28.9          19.2 R EX044854
     K04X14P  C2004 12 11.45142 11 04 23.42 +33 39 00.7          19.2 R EX044854
     K04X14P  C2004 12 11.45710 11 04 22.99 +33 38 28.9          19.4 R EX044854

Observer details:
246 Klet Observatory-KLENOT.  Observers J. Ticha, M. Tichy, M. Kocer.
    Measurer M. Tichy.  1.06-m KLENOT Telescope + CCD.
704 Lincoln Laboratory ETS, New Mexico.  Observers M. Blythe, F. Shelly,
    M. Bezpalko, R. Huber, L. Manguso, D. Torres, R. Kracke, M. McCleary,
    H. Stange, A. Milner.  Measurers J. Stuart, R. Sayer, J. Evans, J. Kommers.
    1.0-m f/2.15 reflector + CCD.
854 Sabino Canyon Observatory, Tucson.  Observer J. E. McGaha.  0.36-m f/10.0
    Schmidt-Cassegrain + CCD.
J95 Great Shefford.  Observer P. Birtwhistle.  0.30-m f/6.3 Schmidt-Cassegrain
    + CCD.

Orbital elements:
2004 XP14                                                            PHA 0.032A
Epoch 2004 Dec. 1.0 TT = JDT 2453340.5                  MPC
M 253.48063              (2000.0)            P               Q
n   0.94036108     Peri.  283.59679     -0.76193855     +0.37396755
a   1.0318256      Node   280.62408     -0.14257755     -0.89327097
e   0.1616920      Incl.   32.54708     -0.63176046     -0.24942984
P   1.05           H   19.9           G   0.15
From 15 observations 2004 Dec. 10-11.

Ephemeris:
2004 XP14                a,e,i = 1.03, 0.16, 33                  q = 0.8650
Date    TT    R. A. (2000) Decl.     Delta      r     Elong.  Phase     V
2004 12 11    11 04.25   +34 16.5    0.257    1.078   104.4    62.2    19.3
2004 12 21    11 03.49   +14 34.7    0.178    1.052   107.9    62.9    18.5
2004 12 31    10 53.53   -22 53.6    0.139    1.025   103.5    68.9    18.1
2005 01 10    10 25.04   -60 55.6    0.172    0.997    89.6    80.5    18.9
2005 01 20    08 49.46   -80 13.7    0.245    0.970    79.5    86.2    19.8
2005 01 30    03 17.11   -84 03.5    0.327    0.943    73.1    87.6    20.4
2005 02 09    00 50.92   -79 11.2    0.405    0.919    68.5    87.2    20.8
2005 02 19    00 05.68   -74 16.8    0.476    0.898    65.1    86.2    21.1

Timothy B. Spahr             (C) Copyright 2004 MPC           M.P.E.C. 2004-X44

Read MPEC 2004-X43 Read MPEC 2004-X45


Our Web policy. Index to the CBAT/MPC/ICQ pages.


Valid HTML 4.01!